Location: Ch�risy
(50.2331°N, 2.9131°E)
Time: 23:29:44
(UTC+00:00)

ATLAS 2AS CENTAUR R/B - Pass Details

Date: 17 January 2021
Orbit: 947 x 1265 km, 63.7° (Epoch: 13 February)

Event Time Altitude Azimuth Distance (km) Brightness Sun altitude
Rises 16:41:06 0° 206° (SSW) 4,189 6.8 -4.1°
Reaches altitude 10° 16:43:54 10° 204° (SSW) 3,238 6.1 -4.5°
Maximum altitude 16:51:41 65° 125° (SE) 1,375 3.2 -5.6°
Drops below altitude 10° 16:59:22 10° 46° (NE) 3,201 4.6 -6.7°
Enters shadow 17:00:34 - 45° (NE) 3,608 4.9 -6.9°
